sat.trackr.live / text

‹ back to catalog

GSAT0202 (GALILEO 6)

NORAD 40129 · 2014-050B

PAYLOAD ACTIVE UNKNOWN

§ Identity

Operator
Country
ESA
Launch date
2014-08-22
Launch site
FRGUI
Launch vehicle
Mass (kg)
RCS (m²)
2.00

Purposes: earth_obs, nav

External: N2YO · Heavens-Above · Gunter

§ Orbital elements

Epoch: 2026-09-18T09:03:42.873984Z

Period
776.19 min
Inclination
48.7952°
Eccentricity
0.1688641
Mean motion
1.85520415 rev/d
Perigee alt
16,874.9 km
Apogee alt
26,323.6 km
Semi-major
27,977.4 km
B*
0.0000e+0
RAAN
268.6916°
Arg perigee
183.6970°
Mean anomaly
174.8925°
Rev number
8,221

§ Raw data

GSAT0202 (GALILEO 6)1 40129U 14050B   26261.37757956  .00000005  00000+0  00000+0 0  99952 40129  48.7952 268.6916 1688641 183.6970 174.8925  1.85520415 82219

JSON: /api/v1/satellites/40129 · /tle

For live sub-satellite position, see the globe view (requires WebGL).

§ Visibility from observer

Set your observer location to see the next 7 days of passes ≥ 10°. The values pass through the URL so the page stays shareable.

No JS? Fill the form by hand. The geolocation button needs JavaScript.